Retour au catalogue

STARLINK-3701

ActifCommunicationsVLEO
NORAD 52095·PAYLOAD·🇺🇸 United States

Lancé Mar 19, 2022 depuis Cape Canaveral Space Force Station

Loading…

Prochains Passages (prochaines 24 heures)

TLE

FraisSource: CelesTrak SupGP

Époque: Sep 14, 2026, 21:16 UTC

1 52095C 22029H   26257.88659722  .00002059  00000+0  60825-4 0  2572
2 52095  53.1587 303.9001 0001209  90.0776  32.3567 15.34399308    11

Suivez STARLINK-3701 en temps réel avec AllMySat

Download on the App Store